Regional Weather Roundup
Issued by NWS

Home | Current Version | Previous Version | Graphics & Text | Print | Product List | Glossary On
Versions: 1 2 3 4 5 6 7 8 9 10 11 12 13 14 15 16 17 18 19 20 21 22 23 24 25 26 27 28 29 30 31 32 33 34 35 36 37 38 39 40 41 42 43 44 45 46 47 48 49 50
000
ASUS45 KABQ 011701
RWRNM
NEW MEXICO REGIONAL WEATHER ROUNDUP
NATIONAL WEATHER SERVICE ALBUQUERQUE NM
1100 AM MDT SAT AUG 01 2015

NOTE: "FAIR" MEANS FEW OR NO CLOUDS BELOW 12,000 FEET AGL WITH NO
       SIGNIFICANT WEATHER OR OBSTRUCTIONS TO VISION.

      THIS PRODUCT IS RELEASED AS TWO VERSIONS.  ONE VERSION NEAR
      THE TOP OF THE HOUR CONTAINING PRELIMINARY DATA FROM ALBUQUERQUE
      AND OTHER STATIONS.  A FINAL VERSION WITH ADDITIONAL DATA IS
      ISSUED ABOUT 10 MINUTES AFTER THE HOUR.

NMZ501-503-504-510>518-011800-
NORTHWEST PLATEAU/NORTHCENTRAL MOUNTAINS

CITY           SKY/WX    TMP DP  RH WIND       PRES   REMARKS
FARMINGTON     CLOUDY    73  59  61 SE3       30.28S
SANTA FE       MOSUNNY   75  53  46 VRB5      30.32F
TAOS           MOSUNNY   72  52  49 NE5       30.40F

$$
NMZ402-403-502-505>509-011800-
WESTCENTRAL MOUNTAINS/SOUTHWEST MOUNTAINS

CITY           SKY/WX    TMP DP  RH WIND       PRES   REMARKS
GALLUP         SUNNY     74  56  53 CALM      30.32F
SILVER CITY      N/A     81  52  36 E10       30.27S

$$
NMZ407-409-411-412-011800-
SOUTHERN DESERTS

CITY           SKY/WX    TMP DP  RH WIND       PRES   REMARKS
DEMING         SUNNY     85  57  38 E10       30.18S
ALAMOGORDO     SUNNY     84  55  37 S9        30.18F
T OR C         MOSUNNY   78  59  51 CALM      30.23F

$$
NMZ519>523-011800-
CENTRAL VALLEYS/CENTRAL HIGHLANDS

CITY           SKY/WX    TMP DP  RH WIND       PRES   REMARKS
ALBUQUERQUE    MOSUNNY   76  56  49 CALM      30.28F
DOUBLE EAGLE   MOSUNNY   75  59  57 VRB3      30.31F
MORIARTY ARPT    N/A     72  56  56 W3        30.34S
CLINES CORNERS MOSUNNY   72  54  53 NW13      30.36S
BELEN          FAIR      79  56  45 CALM      30.26F
SOCORRO        NOT AVBL

$$
NMZ524>526-539-540-011800-
SOUTHCENTRAL MOUNTAINS

CITY           SKY/WX    TMP DP  RH WIND       PRES   REMARKS
RUIDOSO          N/A    N/A N/A N/A MISG        N/A

$$
NMZ527>531-011800-
NORTHEAST HIGHLANDS/NORTHEAST PLAINS

CITY           SKY/WX    TMP DP  RH WIND       PRES   REMARKS
LAS VEGAS      SUNNY     74  55  51 VRB3      30.34S
RATON          MOSUNNY   77  60  55 VRB3      30.28S
CLAYTON        SUNNY     80  64  58 S12       30.20S

$$
NMZ532>537-011800-
EASTCENTRAL PLAINS

CITY           SKY/WX    TMP DP  RH WIND       PRES   REMARKS
TUCUMCARI      SUNNY     82  64  54 S12       30.16F
CANNON AFB     NOT AVBL
CLOVIS AIRPORT CLOUDY    75  66  73 SE10      30.22F

$$
NMZ028-029-538-011800-
SOUTHEAST PLAINS

CITY           SKY/WX    TMP DP  RH WIND       PRES   REMARKS
ROSWELL        SUNNY     86  64  47 VRB6      30.15F
ARTESIA        SUNNY     84  63  48 VRB3      30.16F
CARLSBAD       SUNNY     90  61  37 N10       30.12F
HOBBS          SUNNY     84  61  45 CALM      30.18F


$$



USA.gov is the U.S. government's official web portal to all federal, state and local government web resources and services.